Weather History for Budapest Ferihegy, Hungary

Change the Weather History Date:

Sunday, October 20, 2013

  Actual Average Record
Temperature  
Mean Temperature 54 °F -  
Max Temperature 68 °F 50 °F 140 °F (2003)
Min Temperature 41 °F 35 °F 24 °F (2007)
Degree Days  
Heating Degree Days 10    
Growing Degree Days 4 (Base 50)    
Moisture  
Dew Point 47 °F    
Average Humidity 73    
Maximum Humidity 93    
Minimum Humidity 52    
Precipitation  
Precipitation 0.00 in - - ()
Sea Level Pressure  
Sea Level Pressure 30.18 in    
Wind  
Wind Speed 6 mph ()    
Max Wind Speed 12 mph    
Max Gust Speed -    
Visibility 6.1 miles    
Events      
Averages and records for this station are not official NWS values.
T = Trace of Precipitation, MM = Missing Value Source: Averaged Metar Reports

Daily Weather History Graph

Daily Weather History Graph

Search for Another Location

Airport:

Trip Planner

Search our weather history database for the weather conditions in past years. The results will help you decide how hot, cold, wet, or windy it might be!

Date:

Astronomy

Oct. 20, 2013 Rise Set
Actual Time 7:08 AM CEST 5:45 PM CEST
Civil Twilight 6:37 AM CEST 6:17 PM CEST
Nautical Twilight 6:01 AM CEST 6:52 PM CEST
Astronomical Twilight 5:26 AM CEST 7:28 PM CEST
Moon 6:34 PM CEST (10/20) 8:35 AM CEST (10/20)
Length of Visible Light 11h 39m
Length of Day
10h 37m
Full, 98% of the Moon is Illuminated
Oct 20
Full
Oct 27
Last Quarter
Nov 3
New
Nov 10
First Quarter
Nov 17
Full

Hourly Weather History & Observations

Time (CEST) Temp. Windchill Dew Point Humidity Pressure Visibility Wind Dir Wind Speed Gust Speed Precip Events Conditions
12:00 AM 50.0 °F - 41.0 °F 71% 30.24 in 6.2 mi East 9.2 mph - N/A   Overcast
12:30 AM 50.0 °F - 41.0 °F 71% 30.24 in 6.2 mi East 8.1 mph - N/A   Overcast
1:00 AM 50.0 °F - 41.0 °F 71% 30.24 in 6.2 mi East 8.1 mph - N/A   Overcast
1:30 AM 48.2 °F - 41.0 °F 76% 30.24 in 6.2 mi East 6.9 mph - N/A   Mostly Cloudy
2:00 AM 48.2 °F - 41.0 °F 76% 30.24 in 6.2 mi East 8.1 mph - N/A   Scattered Clouds
2:30 AM 46.4 °F 42.9 °F 41.0 °F 81% 30.21 in 6.2 mi East 6.9 mph - N/A   Scattered Clouds
3:00 AM 46.4 °F 44.3 °F 39.2 °F 76% 30.21 in - East 4.6 mph - N/A   Clear
3:30 AM 46.4 °F 44.3 °F 41.0 °F 81% 30.21 in - East 4.6 mph - N/A   Clear
4:00 AM 46.4 °F 44.3 °F 41.0 °F 81% 30.21 in - ESE 4.6 mph - N/A   Clear
4:30 AM 44.6 °F 42.2 °F 41.0 °F 87% 30.21 in - East 4.6 mph - N/A   Clear
5:00 AM 44.6 °F 42.2 °F 41.0 °F 87% 30.21 in - East 4.6 mph - N/A   Clear
5:30 AM 44.6 °F - 41.0 °F 87% 30.21 in - Variable 2.3 mph - N/A   Clear
6:00 AM 42.8 °F 40.1 °F 39.2 °F 87% 30.21 in - ENE 4.6 mph - N/A   Clear
6:30 AM 42.8 °F 39.3 °F 39.2 °F 87% 30.21 in - East 5.8 mph - N/A   Clear
7:00 AM 41.0 °F 38.0 °F 39.2 °F 93% 30.21 in - ENE 4.6 mph - N/A   Clear
7:30 AM 44.6 °F 41.4 °F 42.8 °F 93% 30.21 in - East 5.8 mph - N/A   Clear
8:00 AM 44.6 °F 42.2 °F 42.8 °F 93% 30.21 in 5.0 mi ENE 4.6 mph - N/A   Unknown
8:30 AM 46.4 °F 43.5 °F 44.6 °F 93% 30.21 in 5.0 mi East 5.8 mph - N/A   Unknown
9:00 AM 48.2 °F - 44.6 °F 87% 30.24 in 5.0 mi ENE 5.8 mph - N/A   Unknown
9:30 AM 50.0 °F - 42.8 °F 76% 30.21 in 5.0 mi East 6.9 mph - N/A   Unknown
10:00 AM 51.8 °F - 44.6 °F 76% 30.21 in - East 5.8 mph - N/A   Clear
10:30 AM 53.6 °F - 44.6 °F 72% 30.24 in - ESE 5.8 mph - N/A   Clear
11:00 AM 53.6 °F - 44.6 °F 72% 30.21 in 6.2 mi SE 5.8 mph - N/A   Partly Cloudy
11:30 AM 57.2 °F - 46.4 °F 67% 30.21 in 6.2 mi ESE 6.9 mph - N/A   Partly Cloudy
12:00 PM 59.0 °F - 46.4 °F 63% 30.21 in 6.2 mi ESE 6.9 mph - N/A   Partly Cloudy
12:30 PM 60.8 °F - 46.4 °F 59% 30.21 in 6.2 mi SE 4.6 mph - N/A   Partly Cloudy
1:00 PM 60.8 °F - 48.2 °F 63% 30.18 in 6.2 mi ESE 6.9 mph - N/A   Scattered Clouds
1:30 PM 64.4 °F - 48.2 °F 56% 30.18 in 6.2 mi ESE 8.1 mph - N/A   Scattered Clouds
2:00 PM 64.4 °F - 50.0 °F 59% 30.15 in 6.2 mi ESE 8.1 mph - N/A   Scattered Clouds
2:30 PM 66.2 °F - 50.0 °F 56% 30.15 in 6.2 mi ESE 5.8 mph - N/A   Mostly Cloudy
3:00 PM 68.0 °F - 50.0 °F 52% 30.15 in 6.2 mi South 11.5 mph - N/A   Mostly Cloudy
3:30 PM 68.0 °F - 50.0 °F 52% 30.15 in 6.2 mi South 11.5 mph - N/A   Mostly Cloudy
4:00 PM 68.0 °F - 50.0 °F 52% 30.15 in 6.2 mi South 10.4 mph - N/A   Mostly Cloudy
4:30 PM 68.0 °F - 51.8 °F 56% 30.12 in 6.2 mi SSW 10.4 mph - N/A   Mostly Cloudy
5:00 PM 66.2 °F - 51.8 °F 60% 30.12 in 6.2 mi South 6.9 mph - N/A   Mostly Cloudy
5:30 PM 64.4 °F - 51.8 °F 64% 30.12 in 6.2 mi South 4.6 mph - N/A   Mostly Cloudy
6:00 PM 60.8 °F - 51.8 °F 72% 30.12 in 6.2 mi SE 4.6 mph - N/A   Mostly Cloudy
6:30 PM 62.6 °F - 53.6 °F 72% 30.12 in 6.2 mi ESE 6.9 mph - N/A   Mostly Cloudy
7:00 PM 62.6 °F - 53.6 °F 72% 30.12 in - SE 6.9 mph - N/A   Clear
7:30 PM 64.4 °F - 53.6 °F 68% 30.12 in - SSE 5.8 mph - N/A   Clear
8:00 PM 62.6 °F - 53.6 °F 72% 30.12 in 6.2 mi SE 5.8 mph - N/A   Mostly Cloudy
8:30 PM 60.8 °F - 53.6 °F 77% 30.12 in 6.2 mi ESE 5.8 mph - N/A   Mostly Cloudy
9:00 PM 62.6 °F - 53.6 °F 72% 30.12 in - SSE 6.9 mph - N/A   Clear
9:30 PM 62.6 °F - 53.6 °F 72% 30.12 in - South 6.9 mph - N/A   Clear
10:00 PM 62.6 °F - 53.6 °F 72% 30.12 in 6.2 mi South 6.9 mph - N/A   Mostly Cloudy
10:30 PM 62.6 °F - 51.8 °F 68% 30.12 in 6.2 mi South 8.1 mph - N/A   Overcast
11:00 PM 60.8 °F - 51.8 °F 72% 30.12 in 6.2 mi South 8.1 mph - N/A   Mostly Cloudy
11:30 PM 60.8 °F - 50.0 °F 68% 30.12 in 6.2 mi South 6.9 mph - N/A   Partly Cloudy